User: anonymous   Login
Location: Unspecified
(0.0000°N, 0.0000°E)
Time: 06:49:54
(UTC+00:00)
Language:

STARLINK-5481 - Orbit

View from above orbital plane
View from above orbital plane
View from above satellite
View from above satellite

Ground track
Ground track

The orbit is defined by the following mean orbital elements,

1 57255U          26144.92972600 +.00000000 +00000-0 +44302-4 0 00006
2 57255  43.0017 308.9997 0001440 270.6584  89.4103 15.27579852    03
Epoch (UTC): 24 May 2026 22:18:48
Eccentricity: 0.0001440
inclination: 43.0017°
perigee height: 482 km
apogee height: 484 km
right ascension of ascending node: 308.9997°
argument of perigee: 270.6584°
revolutions per day: 15.27579852
mean anomaly at epoch: 89.4103°

The dashed part of the orbit path shows where the satellite is in the earth's shadow,  

DLR